Weather History for Raton, NM

Change the Weather History Date:

Tuesday, July 22, 2014

  Actual Average (KTAD) Record (KTAD)
Temperature  
Mean Temperature 75 °F 74 °F  
Max Temperature 95 °F 89 °F 101 °F (1952)
Min Temperature 57 °F 59 °F 47 °F (1961)
Degree Days  
Heating Degree Days 0 0  
Month to date heating degree days 0  
Since 1 June heating degree days 39  
Since 1 July heating degree days 0  
Cooling Degree Days 10 9  
Month to date cooling degree days 192  
Year to date cooling degree days 361  
Since 1 June cooling degree days 333  
Growing Degree Days 25 (Base 50)    
Moisture  
Dew Point 48 °F    
Average Humidity 46    
Maximum Humidity 83    
Minimum Humidity 13    
Precipitation  
Precipitation 0.00 in 0.09 in 1.38 in (1954)
Month to date precipitation 1.52  
Year to date precipitation 7.45  
Sea Level Pressure  
Sea Level Pressure 30.05 in    
Wind  
Wind Speed 8 mph (NE)    
Max Wind Speed 20 mph    
Max Gust Speed 30 mph    
Visibility 10 miles    
Events      
T = Trace of Precipitation, MM = Missing Value Source: NWS Daily Summary

Daily Weather History Graph

Daily Weather History Graph

Search for Another Location

Airport:

Trip Planner

Search our weather history database for the weather conditions in past years. The results will help you decide how hot, cold, wet, or windy it might be!

Date:

Astronomy

Jul. 22, 2014 Rise Set
Actual Time 5:55 AM MDT 8:12 PM MDT
Civil Twilight 5:26 AM MDT 8:41 PM MDT
Nautical Twilight 4:50 AM MDT 9:17 PM MDT
Astronomical Twilight 4:11 AM MDT 9:57 PM MDT
Moon 2:29 AM MDT (7/22) 4:53 PM MDT (7/22)
Length of Visible Light 15h 15m
Length of Day
14h 16m
Waning Crescent, 16% of the Moon is Illuminated
Jul 22
Waning Crescent
Jul 26
New
Aug 3
First Quarter
Aug 10
Full
Aug 17
Last Quarter

Hourly Weather History & Observations

Time (MDT) Temp. Dew Point Humidity Pressure Visibility Wind Dir Wind Speed Gust Speed Precip Events Conditions
12:53 AM 64.9 °F 53.1 °F 65% 30.01 in 10.0 mi West 4.6 mph - N/A   Clear
1:53 AM 61.0 °F 52.0 °F 72% 30.02 in 10.0 mi WNW 5.8 mph - N/A   Clear
2:53 AM 61.0 °F 52.0 °F 72% 30.04 in 10.0 mi NNW 8.1 mph - N/A   Clear
3:53 AM 57.0 °F 51.1 °F 81% 30.08 in 10.0 mi NW 4.6 mph - N/A   Clear
4:53 AM 57.0 °F 51.1 °F 81% 30.09 in 10.0 mi ENE 9.2 mph - N/A   Clear
5:53 AM 57.0 °F 52.0 °F 83% 30.09 in 10.0 mi NE 6.9 mph - N/A   Clear
6:53 AM 60.1 °F 53.1 °F 78% 30.09 in 10.0 mi NNE 5.8 mph - N/A   Clear
8:53 AM 72.0 °F 55.0 °F 55% 30.09 in 10.0 mi NE 6.9 mph - N/A   Clear
9:53 AM 79.0 °F 54.0 °F 42% 30.04 in 10.0 mi East 5.8 mph - N/A   Clear
11:53 AM 91.0 °F 37.9 °F 15% 30.01 in 10.0 mi NE 19.6 mph 25.3 mph N/A   Clear
12:53 PM 91.9 °F 37.0 °F 15% 30.02 in 10.0 mi NE 11.5 mph 23.0 mph N/A   Clear
1:53 PM 93.0 °F 41.0 °F 16% 30.02 in 10.0 mi NE 11.5 mph 21.9 mph N/A   Clear
2:53 PM 93.9 °F 35.1 °F 13% 30.01 in 10.0 mi ENE 11.5 mph 25.3 mph N/A   Clear
3:53 PM 91.9 °F 44.1 °F 19% 30.03 in 10.0 mi East 17.3 mph 29.9 mph N/A   Partly Cloudy
4:53 PM 90.0 °F 45.0 °F 21% 30.04 in 10.0 mi East 12.7 mph - N/A   Scattered Clouds
5:53 PM 88.0 °F 39.9 °F 18% 30.04 in 10.0 mi East 15.0 mph - N/A   Partly Cloudy
6:53 PM 88.0 °F 41.0 °F 19% 30.05 in 10.0 mi East 17.3 mph - N/A   Partly Cloudy
8:53 PM 77.0 °F 53.1 °F 43% 30.09 in 10.0 mi South 9.2 mph - N/A   Clear
9:53 PM 75.0 °F 54.0 °F 48% 30.10 in 10.0 mi SW 5.8 mph - N/A   Clear
10:53 PM 71.1 °F 55.9 °F 59% 30.09 in 10.0 mi SW 4.6 mph - N/A   Clear
11:53 PM 68.0 °F 54.0 °F 61% 30.10 in 10.0 mi North 4.6 mph - N/A   Clear